Вернуться в каталог

STARLINK-30300

АктивенСвязьVLEO
NORAD 57715·PAYLOAD·🇺🇸 United States

Запущен Aug 27, 2023 с Cape Canaveral Space Force Station

Loading…

Ближайшие Пролёты (ближайшие 24 часа)

TLE

СвежийSource: CelesTrak SupGP

Эпоха: Sep 15, 2026, 03:20 UTC

1 57715C 23129T   26258.13937500  .00050524  00000+0  18298-2 0  2586
2 57715  42.9995 128.0371 0001457 270.6238 171.1815 15.27556861    13

Отслеживайте STARLINK-30300 в реальном времени с AllMySat

Download on the App Store